Wind_Speed
47 51 55 58 60 60 60 60 60 62 65 68 72 74 76 79 82 83 85 82 93 102 106 111 115 110 103 99 105 97 93 89 88 89 89 86 81 79 76 79 76 69 66 65 63
43 44 46 48 51 53 54 55 57 58 59 61 62 64 67 71 76 80 81 82 88 99 106 111 117 112 113 106 99 94 87 90 92 93 93 83 87 85 86 83 81 78 73 67 66
40 39 41 43 44 45 46 48 49 50 52 52 52 54 56 59 64 69 73 79 84 93 106 110 116 116 116 115 108 105 102 91 92 98 98 89 94 93 91 91 81 83 78 80 74
39 38 37 38 39 40 39 40 42 44 47 48 47 47 48 47 50 56 61 69 82 93 105 111 111 114 121 118 116 112 92 105 100 97 96 93 94 95 93 91 94 87 80 83 82
34 36 35 34 33 34 34 36 37 38 39 39 40 41 42 41 37 43 50 60 76 94 106 112 112 113 118 121 119 117 108 105 108 103 106 104 100 103 93 100 100 94 89 86 84
32 30 32 31 30 30 32 34 33 34 33 34 34 36 38 36 31 32 41 49 65 89 107 111 111 112 117 120 120 120 121 110 100 112 108 114 108 103 89 94 105 98 95 94 92
33 28 25 26 27 26 27 28 31 29 29 28 31 31 34 34 31 25 31 44 56 77 100 106 109 111 112 118 119 117 117 124 113 105 104 109 109 95 99 98 99 102 98 98 94
30 29 25 23 23 24 25 25 26 25 26 25 28 29 32 33 31 25 23 35 49 67 86 99 104 106 109 111 114 117 118 121 126 121 111 112 91 100 106 101 96 102 104 105 100
20 25 24 23 23 21 23 22 22 23 24 24 24 28 28 32 31 30 27 27 39 54 75 93 100 101 105 107 112 114 116 118 117 116 125 116 100 110 100 103 103 96 100 101 100
5 15 22 23 22 22 23 21 22 23 22 22 23 25 28 28 30 35 33 31 32 44 64 83 96 102 103 104 107 109 111 115 121 123 120 123 113 105 113 108 107 106 99 99 97
25 11 14 20 21 23 22 22 21 24 22 22 21 25 26 29 29 34 38 36 35 38 51 71 90 100 101 102 106 109 112 113 122 127 124 120 116 103 108 109 105 96 104 102 101
63 44 24 17 20 24 25 24 22 23 24 25 22 25 27 27 29 33 35 38 40 40 44 55 76 94 100 100 101 106 110 113 117 123 128 131 122 124 114 120 111 113 100 98 101
73 66 58 47 32 23 26 28 28 26 24 25 27 26 26 28 32 34 35 37 40 45 47 48 55 71 92 104 103 104 108 113 116 122 126 128 128 126 129 116 120 116 115 117 106
75 73 70 64 56 50 42 28 25 30 29 30 30 29 29 30 31 36 38 39 41 44 48 53 56 59 66 83 101 106 106 110 112 120 121 128 124 123 130 136 130 121 122 123 116
73 73 74 71 69 64 59 53 41 28 23 31 36 36 33 34 36 39 40 40 42 46 49 52 57 61 66 70 82 99 108 110 110 116 119 121 126 113 125 135 135 138 137 125 126
73 72 71 72 69 70 67 64 58 53 42 28 24 30 38 42 44 44 47 48 48 49 50 56 57 61 64 68 72 79 90 105 114 116 115 122 127 114 120 124 138 145 143 141 138
72 72 72 71 72 69 71 71 69 61 58 51 38 26 27 32 43 51 54 55 56 56 58 62 63 65 66 67 71 76 83 88 97 110 118 123 126 115 121 130 131 133 140 146 148
70 71 72 72 72 73 72 73 74 75 67 64 56 44 32 26 29 37 47 59 64 65 66 69 68 70 71 73 76 80 84 89 93 98 104 113 123 121 122 125 131 133 133 135 137
68 69 71 71 72 73 73 74 75 77 77 72 68 63 49 34 28 29 33 42 51 64 74 75 75 79 77 78 79 83 86 91 95 99 101 101 106 109 115 125 130 127 129 132 134
71 70 69 70 71 73 75 77 77 77 80 78 74 71 68 55 39 34 30 28 37 48 60 67 70 82 83 81 83 85 86 90 93 90 90 88 91 96 99 105 111 115 123 130 131
69 71 71 71 72 73 76 78 79 79 81 83 81 76 75 68 57 45 37 31 28 36 45 50 55 70 71 72 74 76 77 79 82 80 74 72 75 84 90 95 99 101 105 109 111
70 68 71 73 70 72 74 78 81 82 83 85 85 82 78 75 65 51 43 36 31 30 36 37 42 52 57 53 56 60 60 60 61 63 62 56 63 68 75 80 86 92 95 96 99
71 72 71 72 73 73 73 75 79 82 84 84 88 88 85 82 68 58 44 39 30 30 28 31 35 41 45 41 44 49 49 50 52 50 52 47 51 56 54 58 67 72 78 83 90
69 73 72 72 73 73 75 78 79 82 85 86 91 93 90 85 74 57 47 37 29 27 28 29 31 31 40 35 42 42 37 40 43 39 38 41 41 43 47 52 55 60 63 68 71
68 75 77 75 75 73 74 78 80 85 89 89 93 97 98 90 75 61 48 36 29 23 26 25 28 26 35 34 40 36 34 29 29 32 29 34 31 36 39 42 48 50 51 51 53
70 72 77 78 77 78 77 79 80 84 86 88 92 98 102 97 76 60 51 36 28 21 22 22 24 25 33 31 32 31 27 25 24 24 26 28 22 29 34 37 40 40 43 41 43
71 73 79 79 80 80 79 81 81 82 90 90 92 96 101 98 78 62 47 36 26 19 19 19 19 23 32 26 23 24 22 24 21 19 22 21 20 28 30 32 31 36 34 33 37
Wind_Direction
258 257 257 256 256 255 255 256 258 259 260 260 260 259 258 254 250 246 243 241 232 230 229 226 224 225 222 219 226 232 235 237 238 240 240 241 239 245 244 242 248 249 247 252 253
257 257 257 258 259 260 259 258 259 260 260 260 261 261 259 255 251 245 242 239 234 228 227 224 222 225 223 221 221 221 226 234 238 238 241 240 238 241 246 237 240 250 247 252 251
255 256 258 259 259 259 260 260 259 260 261 260 260 260 260 256 252 246 239 236 233 227 223 224 223 224 222 221 215 222 225 228 231 237 239 240 242 244 243 247 248 243 244 249 252
252 255 256 257 258 259 259 258 260 262 262 261 260 260 259 256 256 250 242 235 229 225 221 222 222 222 221 222 221 221 220 227 231 230 234 232 237 242 243 246 249 243 243 243 243
252 253 255 257 258 257 259 261 262 265 266 263 260 257 259 257 259 255 245 238 226 220 218 219 220 222 223 223 222 222 222 226 230 234 235 234 236 244 245 249 249 243 241 246 242
249 254 257 259 261 259 261 264 262 265 266 267 264 256 257 260 258 260 245 238 227 218 215 217 219 221 222 224 225 223 224 223 226 232 236 235 237 240 242 243 245 246 244 241 243
241 249 260 262 263 265 270 268 262 262 259 268 268 260 254 258 257 261 247 237 229 222 216 216 220 221 223 224 227 228 226 227 224 231 232 237 237 237 238 244 246 247 243 240 245
244 245 257 270 275 274 276 275 269 262 258 266 264 265 255 253 257 253 258 241 233 226 220 218 220 222 224 225 227 228 227 227 229 226 231 233 234 237 240 244 250 253 251 249 251
243 242 253 267 279 290 285 283 272 271 266 268 267 261 260 253 254 255 247 248 237 230 225 221 221 224 225 227 228 228 230 229 231 233 231 235 234 241 240 244 246 252 255 255 256
289 250 254 269 281 296 302 292 281 276 275 273 270 264 262 260 251 249 251 244 241 235 229 226 224 225 227 228 230 231 231 230 229 230 232 235 237 238 243 245 243 245 247 250 249
28 346 287 283 291 298 305 303 296 286 278 280 276 267 263 261 255 250 249 247 245 238 234 230 229 227 228 230 232 232 233 233 230 232 230 231 230 235 236 239 240 238 242 244 247
44 38 16 330 305 305 304 305 301 290 287 281 271 268 264 259 258 253 250 246 246 244 240 235 233 231 230 232 234 235 235 234 234 234 235 237 238 236 236 242 238 240 237 236 238
41 42 41 38 26 347 315 305 299 295 289 281 274 271 267 266 260 257 254 249 246 243 243 242 239 236 235 233 233 235 236 236 236 236 236 236 236 238 239 237 241 237 241 245 237
36 38 37 38 37 35 30 9 319 295 287 279 274 269 268 265 262 260 257 254 252 248 245 242 240 239 237 238 237 236 237 237 238 237 238 238 235 238 240 241 239 241 243 240 240
30 32 32 33 33 32 31 31 23 2 319 283 276 273 265 263 259 258 255 252 252 252 252 248 246 243 241 239 238 240 239 238 240 239 239 240 237 234 241 239 243 243 244 241 244
26 27 28 28 29 29 29 27 26 24 16 353 316 286 270 261 258 256 255 257 254 250 249 252 248 248 247 245 243 242 241 242 242 240 240 242 242 234 240 243 240 241 241 246 245
21 22 23 23 23 24 24 23 23 21 20 18 9 342 304 283 266 258 255 251 252 252 253 251 249 249 249 249 248 247 245 243 242 243 243 242 243 240 238 241 242 241 242 242 244
18 18 18 19 19 19 19 19 18 18 16 16 14 11 352 323 294 276 264 256 252 252 251 251 251 251 250 250 249 250 249 249 245 245 244 245 245 243 242 242 243 244 243 244 244
15 15 13 15 16 15 16 15 13 13 13 10 11 8 4 352 330 306 286 273 260 254 250 250 253 255 251 250 250 251 253 254 251 249 247 247 249 246 247 246 245 246 247 247 246
12 13 12 10 11 11 12 11 11 9 9 9 5 5 2 356 344 330 313 290 271 259 253 253 251 255 257 256 257 256 256 258 259 258 257 253 252 253 251 249 249 247 246 247 247
9 9 10 9 7 7 8 8 8 6 5 5 4 2 360 357 348 340 325 309 284 266 259 256 252 255 256 258 260 262 263 264 265 265 261 256 254 250 248 247 248 246 245 245 245
8 6 6 7 6 5 3 3 4 4 2 1 1 360 357 356 348 343 331 317 302 277 263 256 254 254 259 261 263 265 266 265 266 266 265 258 256 252 246 246 245 245 244 243 243
3 6 3 3 4 2 1 1 1 1 1 359 359 359 356 352 348 341 332 318 306 286 268 259 254 258 264 265 266 267 270 272 270 266 265 260 253 251 247 248 246 245 245 243 241
359 2 4 1 1 360 358 358 356 357 359 357 356 357 356 351 345 342 331 319 308 286 276 267 264 264 269 274 278 277 274 268 269 266 264 257 250 247 245 240 239 239 240 241 241
354 356 359 0 360 358 355 355 354 353 356 357 354 354 354 352 346 340 332 322 311 291 276 269 265 268 276 287 284 286 286 276 274 271 265 259 246 247 240 237 239 238 236 237 237
348 351 353 358 358 358 354 353 353 350 353 354 354 352 352 351 345 341 332 327 315 294 281 268 273 281 285 287 290 294 286 288 279 264 257 256 248 238 237 233 233 234 230 228 229
343 345 346 350 354 355 354 351 351 349 349 353 352 352 351 351 345 341 333 328 316 301 279 277 282 287 288 285 286 284 284 284 270 257 253 244 235 230 228 227 227 226 220 216 215
Height
10635 10636 10637 10638 10639 10640 10642 10644 10644 10645 10645 10644 10645 10646 10646 10646 10650 10656 10663 10671 10680 10690 10702 10718 10730 10741 10759 10774 10781 10788 10801 10813 10818 10819 10807 10813 10834 10836 10841 10845 10851 10863 10871 10876 10881
10622 10622 10623 10623 10625 10626 10628 10629 10629 10629 10628 10628 10628 10628 10627 10626 10628 10635 10643 10650 10657 10669 10682 10695 10708 10725 10741 10753 10764 10774 10794 10797 10797 10798 10793 10816 10817 10816 10824 10825 10838 10852 10858 10865 10868
10609 10610 10611 10612 10613 10614 10615 10615 10615 10615 10614 10614 10614 10612 10610 10611 10611 10613 10621 10628 10637 10649 10660 10674 10690 10704 10720 10732 10750 10762 10783 10780 10779 10780 10785 10798 10798 10797 10809 10813 10827 10836 10840 10850 10857
10598 10599 10600 10601 10602 10604 10605 10604 10604 10604 10602 10602 10601 10599 10597 10598 10599 10598 10602 10608 10616 10627 10640 10654 10671 10686 10701 10715 10728 10744 10759 10761 10764 10765 10772 10785 10780 10782 10794 10808 10808 10822 10828 10833 10842
10588 10590 10591 10592 10594 10595 10596 10595 10594 10593 10592 10590 10590 10588 10586 10588 10587 10584 10585 10589 10595 10606 10621 10636 10652 10668 10681 10695 10708 10727 10737 10743 10748 10749 10758 10766 10773 10769 10795 10790 10782 10801 10815 10821 10825
10581 10583 10585 10586 10587 10587 10588 10587 10585 10584 10583 10581 10580 10578 10577 10579 10577 10575 10577 10578 10583 10591 10605 10620 10634 10648 10661 10675 10684 10701 10711 10720 10724 10727 10733 10744 10754 10761 10784 10765 10765 10776 10793 10806 10811
10575 10578 10579 10580 10581 10582 10581 10580 10578 10577 10576 10574 10571 10570 10570 10569 10570 10571 10570 10571 10574 10581 10593 10606 10620 10633 10646 10657 10673 10686 10697 10704 10710 10712 10723 10729 10750 10770 10756 10744 10748 10756 10770 10782 10793
10569 10574 10575 10576 10576 10576 10575 10574 10571 10570 10569 10567 10565 10563 10564 10563 10564 10566 10565 10565 10568 10576 10585 10596 10607 10619 10631 10641 10653 10662 10674 10679 10687 10700 10707 10717 10749 10736 10742 10744 10749 10745 10752 10766 10776
10565 10569 10572 10573 10572 10572 10570 10569 10566 10564 10562 10561 10559 10559 10557 10557 10560 10560 10561 10560 10562 10568 10576 10584 10593 10605 10613 10622 10632 10641 10654 10666 10675 10686 10691 10701 10726 10718 10725 10734 10738 10734 10732 10746 10757
10565 10568 10570 10571 10570 10569 10567 10565 10563 10559 10557 10555 10554 10553 10552 10552 10554 10552 10554 10556 10556 10560 10566 10574 10583 10591 10600 10609 10615 10624 10634 10646 10655 10660 10671 10683 10705 10701 10704 10714 10718 10724 10722 10723 10733
10571 10571 10570 10570 10568 10565 10563 10560 10559 10556 10553 10551 10549 10547 10546 10546 10547 10545 10546 10550 10552 10554 10557 10563 10567 10575 10585 10590 10595 10603 10613 10624 10633 10638 10652 10660 10679 10683 10684 10691 10702 10703 10708 10711 10714
10580 10576 10572 10569 10566 10562 10558 10556 10554 10551 10548 10545 10544 10540 10540 10540 10540 10539 10540 10543 10544 10547 10548 10551 10555 10562 10567 10574 10579 10585 10593 10602 10610 10618 10631 10640 10660 10663 10668 10670 10681 10688 10688 10692 10697
10590 10584 10578 10572 10565 10560 10555 10552 10547 10545 10543 10540 10537 10535 10535 10535 10533 10532 10534 10534 10535 10536 10538 10541 10543 10547 10551 10556 10562 10567 10573 10580 10587 10596 10606 10617 10640 10643 10645 10655 10658 10664 10666 10669 10677
10598 10591 10584 10577 10570 10562 10555 10548 10542 10537 10536 10532 10529 10529 10529 10527 10527 10523 10525 10525 10526 10527 10527 10527 10529 10531 10534 10538 10542 10547 10553 10558 10566 10575 10584 10591 10619 10621 10623 10628 10631 10631 10638 10645 10655
10605 10596 10588 10580 10574 10566 10558 10549 10541 10534 10529 10524 10521 10520 10520 10518 10516 10514 10514 10514 10515 10515 10512 10514 10515 10517 10518 10520 10524 10529 10534 10538 10542 10550 10561 10563 10573 10622 10594 10603 10598 10600 10606 10623 10639
10609 10600 10591 10583 10575 10567 10559 10551 10543 10535 10527 10518 10512 10509 10508 10505 10503 10503 10500 10500 10501 10501 10500 10494 10498 10499 10500 10503 10507 10509 10512 10515 10519 10526 10540 10530 10538 10599 10575 10567 10575 10579 10594 10600 10610
10611 10603 10594 10584 10576 10568 10560 10552 10544 10536 10528 10518 10509 10502 10496 10493 10491 10489 10486 10485 10482 10483 10482 10478 10479 10480 10483 10486 10487 10487 10485 10491 10495 10499 10509 10505 10509 10552 10548 10541 10549 10558 10565 10573 10583
10612 10604 10595 10586 10575 10566 10557 10548 10540 10531 10523 10515 10506 10500 10491 10484 10478 10472 10469 10468 10467 10465 10462 10457 10460 10460 10462 10465 10466 10465 10465 10465 10471 10470 10475 10479 10495 10514 10517 10523 10520 10525 10539 10546 10557
10614 10605 10596 10587 10577 10567 10558 10547 10537 10528 10518 10508 10500 10491 10484 10476 10468 10460 10454 10448 10446 10443 10439 10440 10441 10434 10440 10443 10446 10444 10444 10441 10442 10446 10453 10463 10471 10486 10488 10492 10494 10508 10515 10522 10528
10616 10607 10596 10587 10577 10567 10556 10546 10535 10524 10513 10504 10492 10481 10471 10463 10456 10447 10439 10435 10428 10422 10418 10419 10427 10413 10414 10422 10423 10424 10426 10421 10416 10424 10430 10446 10452 10454 10459 10460 10465 10478 10485 10488 10499
10615 10604 10594 10583 10573 10564 10553 10544 10533 10521 10510 10498 10487 10476 10465 10454 10441 10433 10425 10417 10413 10408 10404 10404 10407 10392 10396 10401 10402 10401 10402 10402 10397 10396 10403 10414 10419 10414 10418 10426 10432 10441 10449 10458 10471
10615 10605 10595 10584 10573 10563 10552 10540 10529 10517 10505 10493 10482 10471 10459 10447 10432 10423 10412 10404 10397 10393 10390 10390 10389 10383 10380 10387 10386 10381 10381 10381 10380 10377 10379 10390 10386 10387 10392 10401 10406 10409 10415 10431 10444
10616 10606 10592 10581 10570 10559 10552 10543 10530 10518 10505 10490 10478 10464 10447 10434 10425 10410 10401 10391 10385 10378 10377 10377 10375 10371 10369 10372 10371 10366 10367 10365 10361 10361 10359 10368 10366 10364 10373 10377 10380 10386 10394 10402 10405
10613 10605 10594 10581 10569 10557 10544 10534 10524 10516 10502 10486 10471 10458 10444 10429 10412 10403 10390 10380 10373 10367 10364 10363 10361 10362 10355 10359 10355 10352 10354 10351 10346 10347 10346 10345 10347 10350 10353 10355 10357 10361 10369 10377 10388
10610 10601 10591 10580 10569 10558 10544 10531 10520 10505 10492 10480 10461 10445 10435 10421 10404 10387 10378 10370 10362 10357 10354 10353 10350 10351 10347 10346 10342 10341 10339 10337 10336 10334 10333 10330 10334 10335 10339 10340 10342 10348 10356 10364 10372
10604 10595 10587 10577 10564 10551 10540 10528 10516 10500 10494 10478 10460 10440 10424 10408 10393 10382 10368 10360 10352 10349 10345 10344 10342 10342 10336 10335 10332 10329 10328 10326 10325 10324 10322 10321 10324 10326 10326 10329 10333 10340 10343 10351 10360
10599 10587 10578 10574 10562 10550 10537 10523 10510 10499 10480 10471 10458 10441 10420 10402 10383 10371 10359 10351 10345 10342 10338 10336 10335 10334 10326 10328 10327 10323 10319 10317 10318 10315 10313 10315 10316 10313 10317 10320 10323 10330 10337 10345 10354